Location: Étavigny
(49.1201°N, 2.9800°E)
Time: 23:32:51
(UTC+00:00)

Cosmos 1340 Rocket - Pass Details

Date: 28 January 2023
Orbit: 515 x 558 km, 81.2° (Epoch: 21 March)

Event Time Altitude Azimuth Distance (km) Brightness Sun altitude
Rises 17:57:32 0° 174° (S) 2,623 6.4 -13.0°
Reaches altitude 10° 17:59:42 10° 168° (SSE) 1,744 5.4 -13.4°
Maximum altitude 18:03:21 44° 96° (E) 727 3.0 -14.0°
Enters shadow 18:06:57 11° 24° (NNE) 1,728 5.0 -14.6°
